owner,sensor,date,latitude,longitude,air_pressure(mBar),qcFlag 
TABS,ioos:station:TABS:X:1,2017-04-08T09:30:00Z,27.0660,-96.3383,1017.8,11111222 
TABS,ioos:station:TABS:X:1,2017-04-08T10:00:00Z,27.0660,-96.3383,1017.69,11111222 
TABS,ioos:station:TABS:X:1,2017-04-08T10:30:00Z,27.0660,-96.3383,1017.58,11111222 
TABS,ioos:station:TABS:X:1,2017-04-08T11:00:00Z,27.0660,-96.3383,1017.75,11111222 
TABS,ioos:station:TABS:X:1,2017-04-08T11:30:00Z,27.0660,-96.3383,1017.95,11111222 
TABS,ioos:station:TABS:X:1,2017-04-08T12:00:00Z,27.0660,-96.3383,1018.21,11111222 
TABS,ioos:station:TABS:X:1,2017-04-08T12:30:00Z,27.0660,-96.3383,1018.51,11111222 
TABS,ioos:station:TABS:X:1,2017-04-08T13:00:00Z,27.0660,-96.3383,1018.77,11111222 
TABS,ioos:station:TABS:X:1,2017-04-08T13:30:00Z,27.0660,-96.3383,1019.12,11111222 
TABS,ioos:station:TABS:X:1,2017-04-08T14:00:00Z,27.0660,-96.3383,1019.04,11111222 
TABS,ioos:station:TABS:X:1,2017-04-08T14:30:00Z,27.0660,-96.3383,1019.15,11111222 
TABS,ioos:station:TABS:X:1,2017-04-08T15:00:00Z,27.0660,-96.3383,1019.29,11111222 
TABS,ioos:station:TABS:X:1,2017-04-08T15:30:00Z,27.0660,-96.3383,1019.3,11111222 
TABS,ioos:station:TABS:X:1,2017-04-08T16:00:00Z,27.0660,-96.3383,1019.33,11111222 
TABS,ioos:station:TABS:X:1,2017-04-08T16:30:00Z,27.0660,-96.3383,1019.15,11111222 
TABS,ioos:station:TABS:X:1,2017-04-08T17:00:00Z,27.0660,-96.3383,1018.83,11111222 
TABS,ioos:station:TABS:X:1,2017-04-08T17:30:00Z,27.0660,-96.3383,1018.44,11111222 
TABS,ioos:station:TABS:X:1,2017-04-08T18:00:00Z,27.0660,-96.3383,1018.35,11111222 
TABS,ioos:station:TABS:X:1,2017-04-08T18:30:00Z,27.0660,-96.3383,1018.15,11111222 
TABS,ioos:station:TABS:X:1,2017-04-08T19:00:00Z,27.0660,-96.3383,1017.48,11111222 
TABS,ioos:station:TABS:X:1,2017-04-08T19:30:00Z,27.0660,-96.3383,1017.09,11111222 
TABS,ioos:station:TABS:X:1,2017-04-08T20:00:00Z,27.0660,-96.3383,1016.77,11111222 
TABS,ioos:station:TABS:X:1,2017-04-08T20:30:00Z,27.0660,-96.3383,1016.26,11111222 
TABS,ioos:station:TABS:X:1,2017-04-08T21:00:00Z,27.0660,-96.3383,1015.75,11111222 
TABS,ioos:station:TABS:X:1,2017-04-08T21:30:00Z,27.0660,-96.3383,1015.25,11111222 
TABS,ioos:station:TABS:X:1,2017-04-08T22:00:00Z,27.0660,-96.3383,1014.65,11111222 
TABS,ioos:station:TABS:X:1,2017-04-08T22:30:00Z,27.0660,-96.3383,1014.39,11111222 
TABS,ioos:station:TABS:X:1,2017-04-08T23:00:00Z,27.0660,-96.3383,1014.2,11111222 
TABS,ioos:station:TABS:X:1,2017-04-08T23:30:00Z,27.0660,-96.3383,1014.56,11111222 
TABS,ioos:station:TABS:X:1,2017-04-09T00:00:00Z,27.0660,-96.3383,1014.65,11111222 
TABS,ioos:station:TABS:X:1,2017-04-09T00:30:00Z,27.0660,-96.3383,1014.67,11111222 
TABS,ioos:station:TABS:X:1,2017-04-09T01:00:00Z,27.0660,-96.3383,1015.08,11111222 
TABS,ioos:station:TABS:X:1,2017-04-09T01:30:00Z,27.0660,-96.3383,1015.38,11111222 
TABS,ioos:station:TABS:X:1,2017-04-09T02:00:00Z,27.0660,-96.3383,1015.59,11111222 
TABS,ioos:station:TABS:X:1,2017-04-09T02:30:00Z,27.0660,-96.3383,1015.64,11111222 
TABS,ioos:station:TABS:X:1,2017-04-09T03:00:00Z,27.0660,-96.3383,1015.76,11111222 
TABS,ioos:station:TABS:X:1,2017-04-09T03:30:00Z,27.0660,-96.3383,1015.67,11111222 
TABS,ioos:station:TABS:X:1,2017-04-09T04:00:00Z,27.0660,-96.3383,1015.6,11111222 
TABS,ioos:station:TABS:X:1,2017-04-09T04:30:00Z,27.0660,-96.3383,1015.37,11111222 
TABS,ioos:station:TABS:X:1,2017-04-09T05:00:00Z,27.0660,-96.3383,1015.49,11111222 
TABS,ioos:station:TABS:X:1,2017-04-09T05:30:00Z,27.0660,-96.3383,1015.26,11111222 
TABS,ioos:station:TABS:X:1,2017-04-09T06:00:00Z,27.0660,-96.3383,1014.78,11111222 
TABS,ioos:station:TABS:X:1,2017-04-09T06:30:00Z,27.0660,-96.3383,1014.7,11111222 
TABS,ioos:station:TABS:X:1,2017-04-09T07:00:00Z,27.0660,-96.3383,1014.32,11111222 
TABS,ioos:station:TABS:X:1,2017-04-09T07:30:00Z,27.0660,-96.3383,1014.2,11111222 
TABS,ioos:station:TABS:X:1,2017-04-09T08:00:00Z,27.0660,-96.3383,1013.92,11111222 
TABS,ioos:station:TABS:X:1,2017-04-09T08:30:00Z,27.0660,-96.3383,1013.66,11111222 
TABS,ioos:station:TABS:X:1,2017-04-09T09:00:00Z,27.0660,-96.3383,1013.2,11111222 
TABS,ioos:station:TABS:X:1,2017-04-09T09:30:00Z,27.0660,-96.3383,1013.35,11111222 
TABS,ioos:station:TABS:X:1,2017-04-09T10:00:00Z,27.0660,-96.3383,1013.01,11111222 
TABS,ioos:station:TABS:X:1,2017-04-09T10:30:00Z,27.0660,-96.3383,1013.04,11111222 
TABS,ioos:station:TABS:X:1,2017-04-09T11:00:00Z,27.0660,-96.3383,1013.31,11111222 
TABS,ioos:station:TABS:X:1,2017-04-09T11:30:00Z,27.0660,-96.3383,1013.49,11111222 
TABS,ioos:station:TABS:X:1,2017-04-09T12:00:00Z,27.0660,-96.3383,1013.68,11111222 
TABS,ioos:station:TABS:X:1,2017-04-09T12:30:00Z,27.0660,-96.3383,1014.17,11111222 
TABS,ioos:station:TABS:X:1,2017-04-09T13:00:00Z,27.0660,-96.3383,1014.45,11111222 
TABS,ioos:station:TABS:X:1,2017-04-09T13:30:00Z,27.0660,-96.3383,1014.83,11111222 
TABS,ioos:station:TABS:X:1,2017-04-09T14:00:00Z,27.0660,-96.3383,1014.69,11111222 
TABS,ioos:station:TABS:X:1,2017-04-09T14:30:00Z,27.0660,-96.3383,1015.11,11111222 
TABS,ioos:station:TABS:X:1,2017-04-09T15:00:00Z,27.0660,-96.3383,1015.29,11111222 
TABS,ioos:station:TABS:X:1,2017-04-09T15:30:00Z,27.0660,-96.3383,1015.48,11111222 
TABS,ioos:station:TABS:X:1,2017-04-09T16:00:00Z,27.0660,-96.3383,1015.45,11111222 
TABS,ioos:station:TABS:X:1,2017-04-09T16:30:00Z,27.0660,-96.3383,1014.89,11111222 
TABS,ioos:station:TABS:X:1,2017-04-09T17:00:00Z,27.0660,-96.3383,1014.73,11111222 
TABS,ioos:station:TABS:X:1,2017-04-09T17:30:00Z,27.0660,-96.3383,1014.63,11111222 
TABS,ioos:station:TABS:X:1,2017-04-09T18:00:00Z,27.0660,-96.3383,1014.3,11111222 
TABS,ioos:station:TABS:X:1,2017-04-09T18:30:00Z,27.0660,-96.3383,1013.81,11111222 
TABS,ioos:station:TABS:X:1,2017-04-09T19:00:00Z,27.0660,-96.3383,1013.76,11111222 
TABS,ioos:station:TABS:X:1,2017-04-09T19:30:00Z,27.0660,-96.3383,1013.33,11111222 
TABS,ioos:station:TABS:X:1,2017-04-09T20:00:00Z,27.0660,-96.3383,1012.79,11111222 
TABS,ioos:station:TABS:X:1,2017-04-09T20:30:00Z,27.0660,-96.3383,1012.22,11111222 
TABS,ioos:station:TABS:X:1,2017-04-09T21:00:00Z,27.0660,-96.3383,1012.06,11111222 
TABS,ioos:station:TABS:X:1,2017-04-09T21:30:00Z,27.0660,-96.3383,1011.87,11111222 
TABS,ioos:station:TABS:X:1,2017-04-09T22:00:00Z,27.0660,-96.3383,1012.13,11111222 
TABS,ioos:station:TABS:X:1,2017-04-09T22:30:00Z,27.0660,-96.3383,1012.14,11111222 
TABS,ioos:station:TABS:X:1,2017-04-09T23:00:00Z,27.0660,-96.3383,1011.88,11111222 
TABS,ioos:station:TABS:X:1,2017-04-09T23:30:00Z,27.0660,-96.3383,1012.31,11111222 
TABS,ioos:station:TABS:X:1,2017-04-10T00:00:00Z,27.0660,-96.3383,1012.39,11111222 
TABS,ioos:station:TABS:X:1,2017-04-10T00:30:00Z,27.0660,-96.3383,1012.47,11111222 
TABS,ioos:station:TABS:X:1,2017-04-10T01:00:00Z,27.0660,-96.3383,1012.61,11111222 
TABS,ioos:station:TABS:X:1,2017-04-10T01:30:00Z,27.0660,-96.3383,1012.93,11111222 
TABS,ioos:station:TABS:X:1,2017-04-10T02:00:00Z,27.0660,-96.3383,1013.8,11111222 
TABS,ioos:station:TABS:X:1,2017-04-10T02:30:00Z,27.0660,-96.3383,1014.09,11111222 
TABS,ioos:station:TABS:X:1,2017-04-10T03:00:00Z,27.0660,-96.3383,1014.19,11111222 
TABS,ioos:station:TABS:X:1,2017-04-10T03:30:00Z,27.0660,-96.3383,1014.55,11111222 
TABS,ioos:station:TABS:X:1,2017-04-10T04:00:00Z,27.0660,-96.3383,1014.31,11111222 
TABS,ioos:station:TABS:X:1,2017-04-10T04:30:00Z,27.0660,-96.3383,1014.13,11111222 
TABS,ioos:station:TABS:X:1,2017-04-10T05:00:00Z,27.0660,-96.3383,1013.91,11111222 
TABS,ioos:station:TABS:X:1,2017-04-10T05:30:00Z,27.0660,-96.3383,1013.97,11111222 
TABS,ioos:station:TABS:X:1,2017-04-10T06:00:00Z,27.0660,-96.3383,1013.82,11111222 
TABS,ioos:station:TABS:X:1,2017-04-10T06:30:00Z,27.0660,-96.3383,1013.48,11111222 
TABS,ioos:station:TABS:X:1,2017-04-10T07:00:00Z,27.0660,-96.3383,1012.9,11111222 
TABS,ioos:station:TABS:X:1,2017-04-10T07:30:00Z,27.0660,-96.3383,1012.76,11111222 
TABS,ioos:station:TABS:X:1,2017-04-10T08:00:00Z,27.0660,-96.3383,1012.82,11111222 
TABS,ioos:station:TABS:X:1,2017-04-10T08:30:00Z,27.0660,-96.3383,1012.73,11111222 
TABS,ioos:station:TABS:X:1,2017-04-10T09:00:00Z,27.0660,-96.3383,1012.72,11111222 
TABS,ioos:station:TABS:X:1,2017-04-10T09:30:00Z,27.0660,-96.3383,1013.02,11111222 
TABS,ioos:station:TABS:X:1,2017-04-10T10:00:00Z,27.0660,-96.3383,1013.21,11111222 
TABS,ioos:station:TABS:X:1,2017-04-10T10:30:00Z,27.0660,-96.3383,1013.33,11111222 
TABS,ioos:station:TABS:X:1,2017-04-10T11:00:00Z,27.0660,-96.3383,1013.67,11111222 
TABS,ioos:station:TABS:X:1,2017-04-10T11:30:00Z,27.0660,-96.3383,1013.48,11111222 
TABS,ioos:station:TABS:X:1,2017-04-10T12:00:00Z,27.0660,-96.3383,1013.54,11111222 
TABS,ioos:station:TABS:X:1,2017-04-10T12:30:00Z,27.0660,-96.3383,1014.03,11111222 
TABS,ioos:station:TABS:X:1,2017-04-10T13:00:00Z,27.0660,-96.3383,1014.27,11111222 
TABS,ioos:station:TABS:X:1,2017-04-10T13:30:00Z,27.0660,-96.3383,1014.53,11111222 
TABS,ioos:station:TABS:X:1,2017-04-10T14:00:00Z,27.0660,-96.3383,1014.74,11111222 
TABS,ioos:station:TABS:X:1,2017-04-10T14:30:00Z,27.0660,-96.3383,1014.94,11111222 
TABS,ioos:station:TABS:X:1,2017-04-10T15:00:00Z,27.0660,-96.3383,1015.21,11111222 
TABS,ioos:station:TABS:X:1,2017-04-10T15:30:00Z,27.0660,-96.3383,1015.51,11111222 
TABS,ioos:station:TABS:X:1,2017-04-10T16:00:00Z,27.0660,-96.3383,1015.69,11111222 
TABS,ioos:station:TABS:X:1,2017-04-10T16:30:00Z,27.0660,-96.3383,1015.71,11111222 
TABS,ioos:station:TABS:X:1,2017-04-10T17:00:00Z,27.0660,-96.3383,1015.85,11111222 
TABS,ioos:station:TABS:X:1,2017-04-10T17:30:00Z,27.0660,-96.3383,1015.84,11111222 
TABS,ioos:station:TABS:X:1,2017-04-10T18:00:00Z,27.0660,-96.3383,1015.59,11111222 
TABS,ioos:station:TABS:X:1,2017-04-10T18:30:00Z,27.0660,-96.3383,1015.45,11111222 
TABS,ioos:station:TABS:X:1,2017-04-10T19:00:00Z,27.0660,-96.3383,1015.0,11111222 
TABS,ioos:station:TABS:X:1,2017-04-10T19:30:00Z,27.0660,-96.3383,1014.8,11111222 
TABS,ioos:station:TABS:X:1,2017-04-10T20:00:00Z,27.0660,-96.3383,1014.64,11111222 
TABS,ioos:station:TABS:X:1,2017-04-10T20:30:00Z,27.0660,-96.3383,1014.52,11111222 
TABS,ioos:station:TABS:X:1,2017-04-10T21:00:00Z,27.0660,-96.3383,1014.2,11111222 
TABS,ioos:station:TABS:X:1,2017-04-10T21:30:00Z,27.0660,-96.3383,1014.19,11111222 
TABS,ioos:station:TABS:X:1,2017-04-10T22:00:00Z,27.0660,-96.3383,1014.39,11111222 
TABS,ioos:station:TABS:X:1,2017-04-10T22:30:00Z,27.0660,-96.3383,1014.42,11111222 
TABS,ioos:station:TABS:X:1,2017-04-10T23:00:00Z,27.0660,-96.3383,1014.22,11111222 
TABS,ioos:station:TABS:X:1,2017-04-10T23:30:00Z,27.0660,-96.3383,1014.09,11111222 
TABS,ioos:station:TABS:X:1,2017-04-11T00:00:00Z,27.0660,-96.3383,1014.08,11111222 
TABS,ioos:station:TABS:X:1,2017-04-11T00:30:00Z,27.0660,-96.3383,1014.74,11111222 
TABS,ioos:station:TABS:X:1,2017-04-11T01:00:00Z,27.0660,-96.3383,1014.82,11111222 
TABS,ioos:station:TABS:X:1,2017-04-11T01:30:00Z,27.0660,-96.3383,1015.16,11111222 
TABS,ioos:station:TABS:X:1,2017-04-11T02:00:00Z,27.0660,-96.3383,1015.99,11111222 
TABS,ioos:station:TABS:X:1,2017-04-11T02:30:00Z,27.0660,-96.3383,1016.54,11111222 
TABS,ioos:station:TABS:X:1,2017-04-11T03:00:00Z,27.0660,-96.3383,1016.65,11111222 
TABS,ioos:station:TABS:X:1,2017-04-11T03:30:00Z,27.0660,-96.3383,1016.85,11111222 
TABS,ioos:station:TABS:X:1,2017-04-11T04:00:00Z,27.0660,-96.3383,1016.79,11111222 
TABS,ioos:station:TABS:X:1,2017-04-11T04:30:00Z,27.0660,-96.3383,1017.0,11111222 
TABS,ioos:station:TABS:X:1,2017-04-11T05:00:00Z,27.0660,-96.3383,1016.18,11111222 
TABS,ioos:station:TABS:X:1,2017-04-11T05:30:00Z,27.0660,-96.3383,1016.02,11111222 
TABS,ioos:station:TABS:X:1,2017-04-11T06:00:00Z,27.0660,-96.3383,1016.71,11111222 
TABS,ioos:station:TABS:X:1,2017-04-11T06:30:00Z,27.0660,-96.3383,1017.02,11111222 
TABS,ioos:station:TABS:X:1,2017-04-11T07:00:00Z,27.0660,-96.3383,1016.68,11111222 
TABS,ioos:station:TABS:X:1,2017-04-11T07:30:00Z,27.0660,-96.3383,1016.73,11111222 
TABS,ioos:station:TABS:X:1,2017-04-11T08:00:00Z,27.0660,-96.3383,1016.23,11111222 
TABS,ioos:station:TABS:X:1,2017-04-11T08:30:00Z,27.0660,-96.3383,1016.65,11111222 
TABS,ioos:station:TABS:X:1,2017-04-11T09:00:00Z,27.0660,-96.3383,1016.65,11111222 
TABS,ioos:station:TABS:X:1,2017-04-11T09:30:00Z,27.0660,-96.3383,1016.67,11111222 
TABS,ioos:station:TABS:X:1,2017-04-11T10:00:00Z,27.0660,-96.3383,1016.85,11111222 
TABS,ioos:station:TABS:X:1,2017-04-11T10:30:00Z,27.0660,-96.3383,1016.51,11111222 
TABS,ioos:station:TABS:X:1,2017-04-11T11:00:00Z,27.0660,-96.3383,1016.25,11111222 
TABS,ioos:station:TABS:X:1,2017-04-11T11:30:00Z,27.0660,-96.3383,1015.95,11111222 
TABS,ioos:station:TABS:X:1,2017-04-11T12:00:00Z,27.0660,-96.3383,1015.68,11111222 
TABS,ioos:station:TABS:X:1,2017-04-11T12:30:00Z,27.0660,-96.3383,1015.54,11111222 
TABS,ioos:station:TABS:X:1,2017-04-11T13:00:00Z,27.0660,-96.3383,1015.23,11111222 
TABS,ioos:station:TABS:X:1,2017-04-11T13:30:00Z,27.0660,-96.3383,1017.08,11111222 
TABS,ioos:station:TABS:X:1,2017-04-11T14:00:00Z,27.0660,-96.3383,1017.89,11111222 
TABS,ioos:station:TABS:X:1,2017-04-11T14:30:00Z,27.0660,-96.3383,1018.06,11111222 
TABS,ioos:station:TABS:X:1,2017-04-11T15:00:00Z,27.0660,-96.3383,1018.59,11111222 
TABS,ioos:station:TABS:X:1,2017-04-11T15:30:00Z,27.0660,-96.3383,1018.92,11111222 
TABS,ioos:station:TABS:X:1,2017-04-11T16:00:00Z,27.0660,-96.3383,1019.16,11111222 
TABS,ioos:station:TABS:X:1,2017-04-11T16:30:00Z,27.0660,-96.3383,1019.02,11111222 
TABS,ioos:station:TABS:X:1,2017-04-11T17:00:00Z,27.0660,-96.3383,1019.2,11111222 
TABS,ioos:station:TABS:X:1,2017-04-11T17:30:00Z,27.0660,-96.3383,1018.61,11111222 
TABS,ioos:station:TABS:X:1,2017-04-11T18:00:00Z,27.0660,-96.3383,1018.49,11111222 
TABS,ioos:station:TABS:X:1,2017-04-11T18:30:00Z,27.0660,-96.3383,1018.34,11111222 
TABS,ioos:station:TABS:X:1,2017-04-11T19:00:00Z,27.0660,-96.3383,1018.67,11111222 
TABS,ioos:station:TABS:X:1,2017-04-11T19:30:00Z,27.0660,-96.3383,1018.47,11111222 
TABS,ioos:station:TABS:X:1,2017-04-11T20:00:00Z,27.0660,-96.3383,1018.51,11111222 
TABS,ioos:station:TABS:X:1,2017-04-11T20:30:00Z,27.0660,-96.3383,1018.0,11111222 
TABS,ioos:station:TABS:X:1,2017-04-11T21:00:00Z,27.0660,-96.3383,1017.69,11111222 
TABS,ioos:station:TABS:X:1,2017-04-11T21:30:00Z,27.0660,-96.3383,1017.48,11111222 
TABS,ioos:station:TABS:X:1,2017-04-11T22:00:00Z,27.0660,-96.3383,1017.61,11111222 
TABS,ioos:station:TABS:X:1,2017-04-11T22:30:00Z,27.0660,-96.3383,1017.94,11111222 
TABS,ioos:station:TABS:X:1,2017-04-11T23:00:00Z,27.0660,-96.3383,1018.05,11111222 
TABS,ioos:station:TABS:X:1,2017-04-11T23:30:00Z,27.0660,-96.3383,1019.03,11111222 
TABS,ioos:station:TABS:X:1,2017-04-12T00:00:00Z,27.0660,-96.3383,1020.17,11111222 
TABS,ioos:station:TABS:X:1,2017-04-12T00:30:00Z,27.0660,-96.3383,1020.7,11111222 
TABS,ioos:station:TABS:X:1,2017-04-12T01:00:00Z,27.0660,-96.3383,1020.45,11111222 
TABS,ioos:station:TABS:X:1,2017-04-12T01:30:00Z,27.0660,-96.3383,1021.19,11111222 
TABS,ioos:station:TABS:X:1,2017-04-12T02:00:00Z,27.0660,-96.3383,1021.59,11111222 
TABS,ioos:station:TABS:X:1,2017-04-12T02:30:00Z,27.0660,-96.3383,1021.3,11111222 
TABS,ioos:station:TABS:X:1,2017-04-12T03:00:00Z,27.0660,-96.3383,1021.03,11111222 
TABS,ioos:station:TABS:X:1,2017-04-12T03:30:00Z,27.0660,-96.3383,1019.05,11111222 
TABS,ioos:station:TABS:X:1,2017-04-12T04:00:00Z,27.0660,-96.3383,1018.8,11111222 
TABS,ioos:station:TABS:X:1,2017-04-12T04:30:00Z,27.0660,-96.3383,1018.12,11111222 
TABS,ioos:station:TABS:X:1,2017-04-12T05:00:00Z,27.0660,-96.3383,1017.6,11111222 
TABS,ioos:station:TABS:X:1,2017-04-12T05:30:00Z,27.0660,-96.3383,1017.71,11111222 
TABS,ioos:station:TABS:X:1,2017-04-12T06:00:00Z,27.0660,-96.3383,1017.41,11111222 
TABS,ioos:station:TABS:X:1,2017-04-12T06:30:00Z,27.0660,-96.3383,1017.71,11111222 
TABS,ioos:station:TABS:X:1,2017-04-12T07:00:00Z,27.0660,-96.3383,1017.64,11111222 
TABS,ioos:station:TABS:X:1,2017-04-12T07:30:00Z,27.0660,-96.3383,1017.83,11111222 
TABS,ioos:station:TABS:X:1,2017-04-12T08:00:00Z,27.0660,-96.3383,1017.75,11111222 
TABS,ioos:station:TABS:X:1,2017-04-12T08:30:00Z,27.0660,-96.3383,1017.51,11111222 
TABS,ioos:station:TABS:X:1,2017-04-12T09:00:00Z,27.0660,-96.3383,1017.88,11111222 
TABS,ioos:station:TABS:X:1,2017-04-12T09:30:00Z,27.0660,-96.3383,1018.06,11111222 
TABS,ioos:station:TABS:X:1,2017-04-12T10:00:00Z,27.0660,-96.3383,1018.33,11111222 
TABS,ioos:station:TABS:X:1,2017-04-12T10:30:00Z,27.0660,-96.3383,1018.4,11111222 
TABS,ioos:station:TABS:X:1,2017-04-12T11:00:00Z,27.0660,-96.3383,1018.7,11111222 
TABS,ioos:station:TABS:X:1,2017-04-12T11:30:00Z,27.0660,-96.3383,1018.92,11111222 
TABS,ioos:station:TABS:X:1,2017-04-12T12:00:00Z,27.0660,-96.3383,1018.96,11111222 
TABS,ioos:station:TABS:X:1,2017-04-12T12:30:00Z,27.0660,-96.3383,1019.19,11111222 
TABS,ioos:station:TABS:X:1,2017-04-12T13:00:00Z,27.0660,-96.3383,1019.39,11111222 
TABS,ioos:station:TABS:X:1,2017-04-12T13:30:00Z,27.0660,-96.3383,1019.42,11111222 
TABS,ioos:station:TABS:X:1,2017-04-12T14:00:00Z,27.0660,-96.3383,1019.79,11111222 
TABS,ioos:station:TABS:X:1,2017-04-12T14:30:00Z,27.0660,-96.3383,1020.11,11111222 
TABS,ioos:station:TABS:X:1,2017-04-12T15:00:00Z,27.0660,-96.3383,1020.32,11111222 
TABS,ioos:station:TABS:X:1,2017-04-12T15:30:00Z,27.0660,-96.3383,1020.3,11111222 
TABS,ioos:station:TABS:X:1,2017-04-12T16:00:00Z,27.0660,-96.3383,1020.59,11111222 
TABS,ioos:station:TABS:X:1,2017-04-12T16:30:00Z,27.0660,-96.3383,1020.69,11111222 
TABS,ioos:station:TABS:X:1,2017-04-12T17:00:00Z,27.0660,-96.3383,1020.7,11111222 
TABS,ioos:station:TABS:X:1,2017-04-12T17:30:00Z,27.0660,-96.3383,1020.19,11111222 
TABS,ioos:station:TABS:X:1,2017-04-12T18:00:00Z,27.0660,-96.3383,1020.09,11111222 
TABS,ioos:station:TABS:X:1,2017-04-12T18:30:00Z,27.0660,-96.3383,1020.03,11111222 
TABS,ioos:station:TABS:X:1,2017-04-12T19:00:00Z,27.0660,-96.3383,1019.66,11111222 
TABS,ioos:station:TABS:X:1,2017-04-12T19:30:00Z,27.0660,-96.3383,1019.3,11111222 
TABS,ioos:station:TABS:X:1,2017-04-12T20:00:00Z,27.0660,-96.3383,1018.89,11111222 
TABS,ioos:station:TABS:X:1,2017-04-12T20:30:00Z,27.0660,-96.3383,1018.82,11111222 
TABS,ioos:station:TABS:X:1,2017-04-12T21:00:00Z,27.0660,-96.3383,1018.73,11111222 
TABS,ioos:station:TABS:X:1,2017-04-12T21:30:00Z,27.0660,-96.3383,1018.64,11111222 
TABS,ioos:station:TABS:X:1,2017-04-12T22:00:00Z,27.0660,-96.3383,1018.65,11111222 
TABS,ioos:station:TABS:X:1,2017-04-12T22:30:00Z,27.0660,-96.3383,1018.9,11111222 
TABS,ioos:station:TABS:X:1,2017-04-12T23:00:00Z,27.0660,-96.3383,1019.04,11111222 
TABS,ioos:station:TABS:X:1,2017-04-12T23:30:00Z,27.0660,-96.3383,1019.17,11111222 
TABS,ioos:station:TABS:X:1,2017-04-13T00:00:00Z,27.0660,-96.3383,1019.01,11111222 
TABS,ioos:station:TABS:X:1,2017-04-13T00:30:00Z,27.0660,-96.3383,1018.81,11111222 
TABS,ioos:station:TABS:X:1,2017-04-13T01:00:00Z,27.0660,-96.3383,1019.18,11111222 
TABS,ioos:station:TABS:X:1,2017-04-13T01:30:00Z,27.0660,-96.3383,1019.6,11111222 
TABS,ioos:station:TABS:X:1,2017-04-13T02:00:00Z,27.0660,-96.3383,1020.0,11111222 
TABS,ioos:station:TABS:X:1,2017-04-13T02:30:00Z,27.0660,-96.3383,1019.99,11111222 
TABS,ioos:station:TABS:X:1,2017-04-13T03:00:00Z,27.0660,-96.3383,1020.01,11111222 
TABS,ioos:station:TABS:X:1,2017-04-13T03:30:00Z,27.0660,-96.3383,1019.92,11111222 
TABS,ioos:station:TABS:X:1,2017-04-13T04:00:00Z,27.0660,-96.3383,1019.65,11111222 
TABS,ioos:station:TABS:X:1,2017-04-13T04:30:00Z,27.0660,-96.3383,1019.74,11111222 
TABS,ioos:station:TABS:X:1,2017-04-13T05:00:00Z,27.0660,-96.3383,1019.68,11111222 
TABS,ioos:station:TABS:X:1,2017-04-13T05:30:00Z,27.0660,-96.3383,1019.42,11111222 
TABS,ioos:station:TABS:X:1,2017-04-13T06:00:00Z,27.0660,-96.3383,1019.41,11111222 
TABS,ioos:station:TABS:X:1,2017-04-13T06:30:00Z,27.0660,-96.3383,1019.5,11111222 
TABS,ioos:station:TABS:X:1,2017-04-13T07:00:00Z,27.0660,-96.3383,1019.19,11111222 
TABS,ioos:station:TABS:X:1,2017-04-13T07:30:00Z,27.0660,-96.3383,1018.99,11111222 
TABS,ioos:station:TABS:X:1,2017-04-13T08:00:00Z,27.0660,-96.3383,1018.84,11111222 
TABS,ioos:station:TABS:X:1,2017-04-13T08:30:00Z,27.0660,-96.3383,1018.6,11111222 
TABS,ioos:station:TABS:X:1,2017-04-13T09:00:00Z,27.0660,-96.3383,1018.51,11111222 
TABS,ioos:station:TABS:X:1,2017-04-13T09:30:00Z,27.0660,-96.3383,1018.55,11111222 
TABS,ioos:station:TABS:X:1,2017-04-13T10:00:00Z,27.0660,-96.3383,1018.78,11111222 
TABS,ioos:station:TABS:X:1,2017-04-13T10:30:00Z,27.0660,-96.3383,1018.79,11111222 
TABS,ioos:station:TABS:X:1,2017-04-13T11:00:00Z,27.0660,-96.3383,1018.79,11111222 
TABS,ioos:station:TABS:X:1,2017-04-13T11:30:00Z,27.0660,-96.3383,1018.84,11111222 
TABS,ioos:station:TABS:X:1,2017-04-13T12:00:00Z,27.0660,-96.3383,1018.85,11111222 
TABS,ioos:station:TABS:X:1,2017-04-13T12:30:00Z,27.0660,-96.3383,1019.12,11111222 
TABS,ioos:station:TABS:X:1,2017-04-13T13:00:00Z,27.0660,-96.3383,1019.62,11111222 
TABS,ioos:station:TABS:X:1,2017-04-13T13:30:00Z,27.0660,-96.3383,1019.9,11111222 
TABS,ioos:station:TABS:X:1,2017-04-13T14:00:00Z,27.0660,-96.3383,1019.96,11111222 
TABS,ioos:station:TABS:X:1,2017-04-13T14:30:00Z,27.0660,-96.3383,1020.17,11111222 
TABS,ioos:station:TABS:X:1,2017-04-13T15:00:00Z,27.0660,-96.3383,1020.77,11111222 
TABS,ioos:station:TABS:X:1,2017-04-13T15:30:00Z,27.0660,-96.3383,1020.97,11111222 
TABS,ioos:station:TABS:X:1,2017-04-13T16:00:00Z,27.0660,-96.3383,1021.03,11111222 
TABS,ioos:station:TABS:X:1,2017-04-13T16:30:00Z,27.0660,-96.3383,1021.28,11111222 
TABS,ioos:station:TABS:X:1,2017-04-13T17:00:00Z,27.0660,-96.3383,1021.29,11111222 
TABS,ioos:station:TABS:X:1,2017-04-13T17:30:00Z,27.0660,-96.3383,1021.16,11111222 
TABS,ioos:station:TABS:X:1,2017-04-13T18:00:00Z,27.0660,-96.3383,1021.17,11111222 
TABS,ioos:station:TABS:X:1,2017-04-13T18:30:00Z,27.0660,-96.3383,1020.7,11111222 
TABS,ioos:station:TABS:X:1,2017-04-13T19:00:00Z,27.0660,-96.3383,1020.34,11111222 
TABS,ioos:station:TABS:X:1,2017-04-13T19:30:00Z,27.0660,-96.3383,1020.01,11111222 
TABS,ioos:station:TABS:X:1,2017-04-13T20:00:00Z,27.0660,-96.3383,1019.84,11111222 
TABS,ioos:station:TABS:X:1,2017-04-13T20:30:00Z,27.0660,-96.3383,1019.23,11111222 
TABS,ioos:station:TABS:X:1,2017-04-13T21:00:00Z,27.0660,-96.3383,1018.82,11111222 
TABS,ioos:station:TABS:X:1,2017-04-13T21:30:00Z,27.0660,-96.3383,1018.49,11111222 
TABS,ioos:station:TABS:X:1,2017-04-13T22:00:00Z,27.0660,-96.3383,1018.33,11111222 
TABS,ioos:station:TABS:X:1,2017-04-13T22:30:00Z,27.0660,-96.3383,1018.29,11111222 
TABS,ioos:station:TABS:X:1,2017-04-13T23:00:00Z,27.0660,-96.3383,1018.19,11111222 
TABS,ioos:station:TABS:X:1,2017-04-13T23:30:00Z,27.0660,-96.3383,1018.04,11111222 
TABS,ioos:station:TABS:X:1,2017-04-14T00:00:00Z,27.0660,-96.3383,1018.15,11111222 
TABS,ioos:station:TABS:X:1,2017-04-14T00:30:00Z,27.0660,-96.3383,1018.07,11111222 
TABS,ioos:station:TABS:X:1,2017-04-14T01:00:00Z,27.0660,-96.3383,1017.91,11111222 
TABS,ioos:station:TABS:X:1,2017-04-14T01:30:00Z,27.0660,-96.3383,1018.33,11111222 
TABS,ioos:station:TABS:X:1,2017-04-14T02:00:00Z,27.0660,-96.3383,1018.54,11111222 
TABS,ioos:station:TABS:X:1,2017-04-14T02:30:00Z,27.0660,-96.3383,1018.84,11111222 
TABS,ioos:station:TABS:X:1,2017-04-14T03:00:00Z,27.0660,-96.3383,1019.04,11111222 
TABS,ioos:station:TABS:X:1,2017-04-14T03:30:00Z,27.0660,-96.3383,1019.19,11111222 
TABS,ioos:station:TABS:X:1,2017-04-14T04:00:00Z,27.0660,-96.3383,1019.21,11111222 
TABS,ioos:station:TABS:X:1,2017-04-14T04:30:00Z,27.0660,-96.3383,1019.37,11111222 
TABS,ioos:station:TABS:X:1,2017-04-14T05:00:00Z,27.0660,-96.3383,1019.3,11111222 
TABS,ioos:station:TABS:X:1,2017-04-14T05:30:00Z,27.0660,-96.3383,1019.2,11111222 
TABS,ioos:station:TABS:X:1,2017-04-14T06:00:00Z,27.0660,-96.3383,1019.11,11111222 
TABS,ioos:station:TABS:X:1,2017-04-14T06:30:00Z,27.0660,-96.3383,1018.71,11111222 
TABS,ioos:station:TABS:X:1,2017-04-14T07:00:00Z,27.0660,-96.3383,1018.35,11111222 
TABS,ioos:station:TABS:X:1,2017-04-14T07:30:00Z,27.0660,-96.3383,1018.16,11111222 
TABS,ioos:station:TABS:X:1,2017-04-14T08:00:00Z,27.0660,-96.3383,1017.97,11111222 
TABS,ioos:station:TABS:X:1,2017-04-14T08:30:00Z,27.0660,-96.3383,1017.74,11111222 
TABS,ioos:station:TABS:X:1,2017-04-14T09:00:00Z,27.0660,-96.3383,1017.58,11111222 